| time (UTC) | temp F | wind direction | speed MPH | gust MPH | rain 1hr in | rain 24hr in | rain mn in | humidity % | barometer mb |
| 20260505183515 | 85 | 228 | 7.0 | 15.0 | 0.00 | 0.00 | 0.00 | 29 | 1005.5 |
| 20260505182518 | 84 | 240 | 6.0 | 11.0 | 0.00 | 0.00 | 0.00 | 30 | 1005.7 |
| 20260505181521 | 85 | 207 | 7.0 | 15.0 | 0.00 | 0.00 | 0.00 | 30 | 1005.7 |
| 20260505180525 | 84 | 269 | 5.0 | 11.0 | 0.00 | 0.00 | 0.00 | 31 | 1005.7 |
| 20260505175528 | 85 | 189 | 2.0 | 9.0 | 0.00 | 0.00 | 0.00 | 31 | 1006.0 |
| 20260505174531 | 84 | 233 | 7.0 | 13.0 | 0.00 | 0.00 | 0.00 | 31 | 1006.1 |
| 20260505173517 | 84 | 211 | 5.0 | 17.0 | 0.00 | 0.00 | 0.00 | 32 | 1006.4 |
| 20260505172520 | 83 | 246 | 5.0 | 11.0 | 0.00 | 0.00 | 0.00 | 33 | 1006.4 |
| 20260505171523 | 84 | 196 | 2.0 | 11.0 | 0.00 | 0.00 | 0.00 | 34 | 1006.7 |
| 20260505170527 | 82 | 173 | 2.0 | 11.0 | 0.00 | 0.00 | 0.00 | 34 | 1006.9 |
| 20260505165530 | 82 | 204 | 3.0 | 8.0 | 0.00 | 0.00 | 0.00 | 35 | 1007.0 |
| 20260505164515 | 81 | 230 | 5.0 | 8.0 | 0.00 | 0.00 | 0.00 | 36 | 1007.2 |
| 20260505163518 | 80 | 197 | 3.0 | 7.0 | 0.00 | 0.00 | 0.00 | 36 | 1007.2 |
| 20260505162522 | 81 | 270 | 0.0 | 4.0 | 0.00 | 0.00 | 0.00 | 37 | 1007.8 |
| 20260505161525 | 80 | 135 | 0.0 | 2.0 | 0.00 | 0.00 | 0.00 | 38 | 1007.9 |
| 20260505160548 | 79 | 211 | 2.0 | 4.0 | 0.00 | 0.00 | 0.00 | 39 | 1008.1 |
| 20260505152523 | 76 | 215 | 2.0 | 6.0 | 0.00 | 0.00 | 0.00 | 41 | 1008.6 |
| 20260505151521 | 75 | 242 | 2.0 | 8.0 | 0.00 | 0.00 | 0.00 | 42 | 1008.6 |
| 20260505150518 | 73 | 231 | 2.0 | 5.0 | 0.00 | 0.00 | 0.00 | 44 | 1008.7 |
| 20260505140532 | 68 | 181 | 2.0 | 9.0 | 0.00 | 0.00 | 0.00 | 50 | 1008.7 |